Location: Unspecified
(45.4160°N, 0.0000°E)
Time: 14:40:50
(UTC+00:00)

deb RADCAL - Visible Passes

Search period start: 04 April 2026 00:00
Search period end: 14 April 2026 00:00
Orbit: 717 x 753 km, 89.3° (Epoch: 28 March)

Date Brightness Start Highest point End Pass type
(mag) Time Alt. Az. Time Alt. Az. Time Alt. Az.
4 Apr ? 02:26:24 10° NNE 02:31:07 37° E 02:32:35 31° ESE visible
4 Apr ? 04:06:09 10° NNW 04:10:26 28° WNW 04:12:09 23° WSW visible
5 Apr ? 01:41:41 10° NE 01:44:50 16° ENE 01:46:29 14° E visible
5 Apr ? 03:19:46 10° N 03:24:49 66° W 03:26:04 48° SW visible
6 Apr ? 02:33:56 10° N 02:38:55 52° E 02:40:00 44° SE visible
6 Apr ? 04:14:19 10° NNW 04:17:59 20° WNW 04:19:34 18° W visible
7 Apr ? 01:48:47 10° NNE 01:52:44 22° E 01:53:56 20° E visible
7 Apr ? 03:27:36 10° N 03:32:27 46° W 03:33:31 40° WSW visible
8 Apr ? 02:41:34 10° N 02:46:40 74° E 02:47:28 61° SSE visible
8 Apr ? 04:22:45 10° NW 04:25:28 15° WNW 04:27:01 13° W visible
9 Apr ? 01:56:06 10° NNE 02:00:35 31° E 02:01:25 29° E visible
9 Apr ? 03:35:32 10° NNW 03:40:03 33° W 03:40:59 31° WSW visible
10 Apr ? 01:11:48 10° NE 01:14:13 13° ENE 01:15:24 12° E visible
10 Apr ? 02:49:16 10° N 02:54:22 80° W 02:54:58 68° SSW visible
10 Apr ? 04:32:20 10° WNW 04:32:55 10° WNW 04:33:29 10° WNW visible
11 Apr ? 02:03:33 10° NNE 02:08:24 43° E 02:08:56 41° ESE visible
11 Apr ? 03:43:34 10° NNW 03:47:35 24° WNW 03:48:30 23° W visible
12 Apr ? 01:18:36 10° NNE 01:22:08 19° ENE 01:22:54 18° E visible
12 Apr ? 02:57:02 10° N 03:02:00 56° W 03:02:28 54° WSW visible
13 Apr ? 02:11:06 10° N 02:16:08 60° E 02:16:27 59° ESE visible
13 Apr ? 03:51:48 10° NNW 03:55:04 18° WNW 03:56:02 17° W visible
